FLI402 BIKF-EKVG

Flight info

Callsign FLI402
Flight time 1h 9m
Altitude 37000
Route OSKUM3C OSKUM DCT MAGNI
Aircraft A20N/M-SDE2E3FGHIRWXY/LB1

Departure

Time 2026-04-28 19:13
Airport Keflavik International Airport (BIKF)

Arrival

Time 2026-04-28 20:22
Airport Vágar Airport (EKVG)
Time Latitude Longitude Altitude Speed Heading
2026-04-28 18:24 63.99284 -22.62461 140 ft 0 kts 360°
2026-04-28 19:03 63.99272 -22.62462 140 ft 2 kts 359°
2026-04-28 19:03 63.99257 -22.62462 140 ft 2 kts 360°
2026-04-28 19:04 63.99242 -22.62462 140 ft 2 kts 359°
2026-04-28 19:04 63.99227 -22.62462 140 ft 2 kts
2026-04-28 19:04 63.99212 -22.62462 140 ft 2 kts 359°
2026-04-28 19:04 63.99197 -22.62463 140 ft 2 kts
2026-04-28 19:05 63.99182 -22.62462 140 ft 1 kts
2026-04-28 19:05 63.99171 -22.62480 139 ft 2 kts 69°
2026-04-28 19:05 63.99171 -22.62514 139 ft 2 kts 96°
2026-04-28 19:05 63.99171 -22.62548 139 ft 2 kts 89°
2026-04-28 19:06 63.99171 -22.62559 139 ft 0 kts 91°
2026-04-28 19:08 63.99171 -22.62543 139 ft 6 kts 89°
2026-04-28 19:08 63.99171 -22.62353 142 ft 11 kts 91°
2026-04-28 19:08 63.99173 -22.62168 142 ft 13 kts 89°
2026-04-28 19:08 63.99172 -22.61950 142 ft 13 kts 90°
2026-04-28 19:09 63.99173 -22.61733 142 ft 13 kts 89°
2026-04-28 19:09 63.99173 -22.61521 142 ft 13 kts 90°
2026-04-28 19:09 63.99172 -22.61312 143 ft 12 kts 90°
2026-04-28 19:09 63.99173 -22.61123 145 ft 14 kts 90°
2026-04-28 19:10 63.99173 -22.60879 145 ft 11 kts 89°
2026-04-28 19:10 63.99173 -22.60798 146 ft 0 kts 89°
2026-04-28 19:11 63.99173 -22.60712 146 ft 12 kts 90°
2026-04-28 19:12 63.99140 -22.60552 146 ft 11 kts 169°
2026-04-28 19:12 63.99000 -22.60552 149 ft 47 kts 179°
2026-04-28 19:12 63.98422 -22.60549 158 ft 115 kts 180°
2026-04-28 19:12 63.97463 -22.60549 354 ft 152 kts 182°
2026-04-28 19:13 63.96407 -22.60492 1058 ft 155 kts 179°
2026-04-28 19:13 63.95364 -22.60083 1823 ft 165 kts 158°
2026-04-28 19:13 63.94572 -22.57935 2348 ft 200 kts 123°
2026-04-28 19:13 63.94027 -22.54854 2892 ft 220 kts 118°
2026-04-28 19:14 63.93464 -22.51454 3455 ft 238 kts 118°
2026-04-28 19:14 63.92839 -22.47852 4042 ft 255 kts 119°
2026-04-28 19:14 63.92164 -22.44128 4813 ft 263 kts 120°
2026-04-28 19:14 63.91452 -22.40288 5518 ft 266 kts 120°
2026-04-28 19:15 63.90722 -22.36435 5916 ft 267 kts 121°
2026-04-28 19:15 63.89986 -22.32598 6010 ft 266 kts 122°
2026-04-28 19:15 63.89235 -22.28715 6012 ft 265 kts 122°
2026-04-28 19:15 63.88744 -22.26193 6014 ft 266 kts 122°
2026-04-28 19:16 63.87747 -22.21083 6018 ft 266 kts 122°
2026-04-28 19:16 63.87003 -22.17291 6028 ft 267 kts 122°
2026-04-28 19:16 63.86247 -22.13443 6033 ft 266 kts 122°
2026-04-28 19:16 63.85495 -22.09621 6027 ft 266 kts 122°
2026-04-28 19:17 63.84747 -22.05813 6026 ft 266 kts 122°
2026-04-28 19:17 63.84027 -22.01906 6032 ft 270 kts 116°
2026-04-28 19:17 63.83556 -21.97774 6032 ft 276 kts 107°
2026-04-28 19:17 63.83284 -21.93461 6036 ft 278 kts 104°
2026-04-28 19:18 63.83055 -21.89092 6030 ft 278 kts 104°
2026-04-28 19:18 63.82831 -21.84805 6031 ft 277 kts 104°
2026-04-28 19:18 63.82597 -21.80460 6032 ft 277 kts 104°
2026-04-28 19:18 63.82356 -21.76096 6073 ft 281 kts 104°
2026-04-28 19:19 63.82104 -21.71656 6598 ft 284 kts 104°
2026-04-28 19:19 63.81859 -21.67243 6961 ft 283 kts 104°
2026-04-28 19:19 63.81607 -21.62838 7254 ft 289 kts 105°
2026-04-28 19:19 63.81348 -21.58347 8158 ft 292 kts 105°
2026-04-28 19:20 63.81088 -21.53794 9052 ft 294 kts 107°
2026-04-28 19:20 63.80815 -21.49140 9827 ft 301 kts 107°
2026-04-28 19:20 63.80535 -21.44412 10477 ft 311 kts 107°
2026-04-28 19:20 63.80233 -21.39454 10960 ft 327 kts 107°
2026-04-28 19:21 63.79929 -21.34360 11624 ft 335 kts 108°
2026-04-28 19:21 63.79621 -21.29128 12388 ft 340 kts 108°
2026-04-28 19:21 63.79306 -21.23773 13141 ft 344 kts 108°
2026-04-28 19:21 63.78983 -21.18416 13861 ft 348 kts 109°
2026-04-28 19:22 63.78657 -21.13034 14601 ft 351 kts 109°
2026-04-28 19:22 63.78430 -21.09314 15089 ft 354 kts 109°
2026-04-28 19:22 63.77959 -21.02041 15984 ft 357 kts 112°
2026-04-28 19:22 63.77423 -20.96520 16661 ft 356 kts 117°
2026-04-28 19:23 63.76801 -20.91126 17318 ft 359 kts 117°
2026-04-28 19:23 63.76152 -20.85660 17925 ft 364 kts 117°
2026-04-28 19:23 63.75497 -20.80166 18551 ft 367 kts 118°
2026-04-28 19:23 63.74837 -20.74607 19189 ft 371 kts 118°
2026-04-28 19:24 63.74165 -20.68952 19810 ft 374 kts 118°
2026-04-28 19:24 63.73491 -20.63291 20458 ft 376 kts 118°
2026-04-28 19:24 63.72809 -20.57574 21059 ft 380 kts 118°
2026-04-28 19:24 63.72120 -20.51827 21668 ft 383 kts 118°
2026-04-28 19:25 63.71437 -20.46019 22316 ft 387 kts 117°
2026-04-28 19:25 63.70875 -20.40030 22896 ft 396 kts 114°
2026-04-28 19:25 63.70405 -20.33994 23465 ft 400 kts 114°
2026-04-28 19:25 63.69938 -20.27817 24070 ft 401 kts 114°
2026-04-28 19:26 63.69463 -20.21548 24543 ft 406 kts 114°
2026-04-28 19:26 63.68979 -20.15267 24956 ft 412 kts 114°
2026-04-28 19:26 63.68489 -20.08925 25450 ft 415 kts 115°
2026-04-28 19:26 63.67996 -20.02546 26044 ft 415 kts 115°
2026-04-28 19:27 63.67495 -19.96158 26464 ft 420 kts 115°
2026-04-28 19:27 63.66973 -19.89635 26811 ft 426 kts 115°
2026-04-28 19:27 63.66448 -19.83074 27212 ft 431 kts 115°
2026-04-28 19:27 63.65916 -19.76422 27653 ft 434 kts 115°
2026-04-28 19:28 63.65381 -19.69756 28086 ft 437 kts 115°
2026-04-28 19:28 63.64833 -19.62955 28545 ft 438 kts 115°
2026-04-28 19:28 63.64296 -19.56319 29003 ft 439 kts 115°
2026-04-28 19:28 63.63737 -19.49519 29306 ft 444 kts 115°
2026-04-28 19:29 63.63172 -19.42719 29611 ft 448 kts 115°
2026-04-28 19:29 63.62785 -19.38063 29850 ft 450 kts 115°
2026-04-28 19:29 63.62024 -19.28913 30349 ft 452 kts 116°
2026-04-28 19:29 63.61441 -19.21974 30719 ft 453 kts 116°
2026-04-28 19:30 63.60860 -19.15061 31147 ft 451 kts 116°
2026-04-28 19:30 63.60269 -19.08150 31542 ft 451 kts 116°
2026-04-28 19:30 63.59676 -19.01242 31834 ft 453 kts 116°
2026-04-28 19:30 63.59076 -18.94314 32124 ft 455 kts 116°
2026-04-28 19:31 63.58468 -18.87342 32341 ft 459 kts 115°
2026-04-28 19:31 63.57853 -18.80291 32642 ft 461 kts 115°
2026-04-28 19:31 63.57240 -18.73297 32850 ft 464 kts 115°
2026-04-28 19:31 63.56614 -18.66206 33179 ft 465 kts 115°
2026-04-28 19:32 63.55978 -18.59048 33437 ft 467 kts 115°
2026-04-28 19:32 63.55343 -18.51989 33562 ft 472 kts 114°
2026-04-28 19:32 63.54695 -18.44785 33803 ft 474 kts 114°
2026-04-28 19:32 63.54048 -18.37591 34174 ft 473 kts 114°
2026-04-28 19:33 63.53403 -18.30418 34579 ft 470 kts 115°
2026-04-28 19:33 63.52753 -18.23283 34894 ft 468 kts 115°
2026-04-28 19:33 63.52095 -18.16137 35120 ft 468 kts 115°
2026-04-28 19:33 63.51428 -18.08967 35285 ft 469 kts 115°
2026-04-28 19:34 63.50767 -18.01881 35520 ft 468 kts 114°
2026-04-28 19:34 63.50106 -17.94803 35758 ft 466 kts 114°
2026-04-28 19:34 63.49439 -17.87731 35920 ft 466 kts 114°
2026-04-28 19:34 63.48764 -17.80631 35794 ft 468 kts 114°
2026-04-28 19:35 63.48089 -17.73565 35941 ft 468 kts 114°
2026-04-28 19:35 63.47414 -17.66488 36158 ft 465 kts 113°
2026-04-28 19:35 63.46735 -17.59413 36428 ft 462 kts 113°
2026-04-28 19:35 63.46064 -17.52478 36675 ft 461 kts 112°
2026-04-28 19:36 63.45385 -17.45538 36828 ft 462 kts 112°
2026-04-28 19:36 63.44700 -17.38557 36992 ft 463 kts 112°
2026-04-28 19:36 63.43325 -17.24601 37032 ft 461 kts 113°
2026-04-28 19:37 63.42171 -17.12989 37043 ft 460 kts 113°
2026-04-28 19:37 63.40532 -16.96729 37058 ft 461 kts 113°
2026-04-28 19:38 63.39120 -16.82883 37074 ft 461 kts 113°
2026-04-28 19:38 63.37688 -16.68981 37076 ft 461 kts 113°
2026-04-28 19:39 63.36249 -16.55164 37086 ft 462 kts 113°
2026-04-28 19:39 63.34799 -16.41335 37032 ft 459 kts 113°
2026-04-28 19:40 63.33331 -16.27548 37052 ft 460 kts 114°
2026-04-28 19:40 63.31857 -16.13806 37066 ft 458 kts 114°
2026-04-28 19:41 63.30364 -16.00039 37049 ft 458 kts 114°
2026-04-28 19:41 63.28869 -15.86381 37053 ft 457 kts 114°
2026-04-28 19:42 63.27357 -15.72703 37116 ft 457 kts 114°
2026-04-28 19:42 63.26097 -15.61384 37021 ft 456 kts 114°
2026-04-28 19:43 63.24300 -15.45448 37082 ft 458 kts 114°
2026-04-28 19:43 63.22755 -15.31855 37066 ft 456 kts 114°
2026-04-28 19:44 63.21201 -15.18304 37099 ft 454 kts 114°
2026-04-28 19:44 63.19633 -15.04796 37098 ft 455 kts 114°
2026-04-28 19:45 63.18054 -14.91281 37090 ft 454 kts 114°
2026-04-28 19:45 63.16463 -14.77824 37110 ft 454 kts 114°
2026-04-28 19:46 63.14861 -14.64375 37115 ft 455 kts 114°
2026-04-28 19:46 63.13248 -14.50940 37109 ft 453 kts 114°
2026-04-28 19:47 63.11617 -14.37507 37105 ft 455 kts 114°
2026-04-28 19:47 63.09982 -14.24135 37108 ft 453 kts 115°
2026-04-28 19:48 63.08333 -14.10781 37100 ft 453 kts 115°
2026-04-28 19:48 63.06668 -13.97406 37104 ft 451 kts 115°
2026-04-28 19:49 63.04998 -13.84131 37119 ft 452 kts 115°
2026-04-28 19:49 63.03313 -13.70831 37113 ft 451 kts 114°
2026-04-28 19:50 63.00809 -13.51212 37124 ft 441 kts 115°
2026-04-28 19:51 62.99137 -13.38302 37131 ft 438 kts 115°
2026-04-28 19:51 62.97464 -13.25481 37134 ft 437 kts 116°
2026-04-28 19:52 62.95780 -13.12705 37140 ft 437 kts 115°
2026-04-28 19:52 62.94947 -13.06401 36963 ft 436 kts 115°
2026-04-28 19:52 62.94100 -13.00026 36694 ft 436 kts 115°
2026-04-28 19:52 62.93248 -12.93651 36455 ft 437 kts 115°
2026-04-28 19:53 62.92388 -12.87229 36217 ft 438 kts 115°
2026-04-28 19:53 62.91527 -12.80826 35977 ft 439 kts 115°
2026-04-28 19:53 62.90665 -12.74441 35742 ft 439 kts 115°
2026-04-28 19:53 62.89800 -12.68044 35506 ft 440 kts 115°
2026-04-28 19:54 62.88930 -12.61639 35268 ft 440 kts 115°
2026-04-28 19:54 62.88053 -12.55215 35027 ft 441 kts 115°
2026-04-28 19:54 62.87169 -12.48775 34785 ft 442 kts 115°
2026-04-28 19:54 62.86291 -12.42403 34507 ft 442 kts 115°
2026-04-28 19:55 62.85397 -12.35941 34229 ft 443 kts 114°
2026-04-28 19:55 62.84512 -12.29557 33951 ft 443 kts 115°
2026-04-28 19:55 62.83611 -12.23078 33671 ft 444 kts 115°
2026-04-28 19:55 62.82713 -12.16656 33394 ft 445 kts 115°
2026-04-28 19:56 62.81802 -12.10174 33115 ft 446 kts 115°
2026-04-28 19:56 62.80889 -12.03705 32834 ft 447 kts 114°
2026-04-28 19:56 62.79975 -11.97239 32560 ft 448 kts 114°
2026-04-28 19:56 62.79065 -11.90822 32283 ft 448 kts 114°
2026-04-28 19:57 62.78146 -11.84357 31997 ft 446 kts 114°
2026-04-28 19:57 62.77228 -11.77922 31718 ft 444 kts 114°
2026-04-28 19:57 62.76312 -11.71532 31440 ft 442 kts 114°
2026-04-28 19:57 62.75394 -11.65153 31153 ft 440 kts 114°
2026-04-28 19:58 62.74477 -11.58820 30877 ft 437 kts 114°
2026-04-28 19:58 62.73576 -11.52604 30596 ft 435 kts 114°
2026-04-28 19:58 62.72669 -11.46378 30321 ft 432 kts 114°
2026-04-28 19:58 62.71761 -11.40172 30056 ft 431 kts 114°
2026-04-28 19:59 62.70844 -11.33928 29789 ft 429 kts 114°
2026-04-28 19:59 62.69942 -11.27795 29528 ft 426 kts 114°
2026-04-28 19:59 62.69038 -11.21682 29259 ft 423 kts 114°
2026-04-28 19:59 62.68139 -11.15621 28891 ft 421 kts 114°
2026-04-28 20:00 62.67243 -11.09603 28514 ft 418 kts 114°
2026-04-28 20:00 62.66350 -11.03614 28109 ft 416 kts 114°
2026-04-28 20:00 62.65467 -10.97725 27709 ft 412 kts 114°
2026-04-28 20:00 62.64577 -10.91805 27318 ft 409 kts 114°
2026-04-28 20:01 62.63706 -10.86028 26924 ft 406 kts 114°
2026-04-28 20:01 62.62825 -10.80207 26518 ft 403 kts 114°
2026-04-28 20:01 62.61950 -10.74458 26116 ft 400 kts 114°
2026-04-28 20:01 62.61084 -10.68768 25715 ft 397 kts 114°
2026-04-28 20:02 62.60216 -10.63095 25293 ft 395 kts 114°
2026-04-28 20:02 62.59358 -10.57498 24911 ft 392 kts 114°
2026-04-28 20:02 62.58505 -10.51957 24536 ft 389 kts 114°
2026-04-28 20:02 62.57653 -10.46446 24135 ft 388 kts 114°
2026-04-28 20:03 62.56794 -10.40895 23739 ft 385 kts 114°
2026-04-28 20:03 62.55946 -10.35435 23350 ft 383 kts 114°
2026-04-28 20:03 62.55095 -10.29979 22973 ft 381 kts 115°
2026-04-28 20:03 62.54255 -10.24598 22591 ft 378 kts 115°
2026-04-28 20:04 62.53413 -10.19227 22204 ft 376 kts 115°
2026-04-28 20:04 62.52581 -10.13933 21818 ft 374 kts 115°
2026-04-28 20:04 62.51741 -10.08604 21430 ft 372 kts 115°
2026-04-28 20:04 62.50911 -10.03354 21053 ft 370 kts 116°
2026-04-28 20:05 62.50080 -9.98117 20662 ft 368 kts 116°
2026-04-28 20:05 62.49247 -9.92889 20281 ft 366 kts 116°
2026-04-28 20:05 62.48429 -9.87761 19903 ft 364 kts 115°
2026-04-28 20:05 62.47604 -9.82609 19517 ft 362 kts 116°
2026-04-28 20:06 62.46775 -9.77446 19136 ft 361 kts 116°
2026-04-28 20:06 62.45961 -9.72378 18754 ft 359 kts 116°
2026-04-28 20:06 62.45142 -9.67311 18385 ft 357 kts 116°
2026-04-28 20:06 62.44335 -9.62320 18021 ft 355 kts 116°
2026-04-28 20:07 62.43516 -9.57275 17645 ft 353 kts 116°
2026-04-28 20:07 62.42980 -9.53977 17394 ft 352 kts 116°
2026-04-28 20:07 62.41905 -9.47391 16902 ft 350 kts 116°
2026-04-28 20:07 62.41093 -9.42431 16529 ft 348 kts 115°
2026-04-28 20:08 62.40293 -9.37556 16150 ft 347 kts 116°
2026-04-28 20:08 62.39483 -9.32632 15779 ft 345 kts 116°
2026-04-28 20:08 62.38692 -9.27841 15421 ft 343 kts 116°
2026-04-28 20:08 62.37894 -9.23009 15052 ft 341 kts 116°
2026-04-28 20:09 62.37098 -9.18209 14678 ft 339 kts 116°
2026-04-28 20:09 62.36305 -9.13438 14308 ft 338 kts 116°
2026-04-28 20:09 62.35510 -9.08671 13942 ft 336 kts 116°
2026-04-28 20:09 62.34722 -9.03957 13574 ft 334 kts 116°
2026-04-28 20:10 62.33945 -8.99322 13218 ft 333 kts 116°
2026-04-28 20:10 62.33157 -8.94626 12859 ft 331 kts 116°
2026-04-28 20:10 62.32379 -8.90006 12506 ft 329 kts 115°
2026-04-28 20:10 62.31607 -8.85431 12155 ft 327 kts 115°
2026-04-28 20:11 62.30836 -8.80861 11806 ft 325 kts 115°
2026-04-28 20:11 62.30067 -8.76328 11464 ft 323 kts 115°
2026-04-28 20:11 62.29299 -8.71808 11120 ft 321 kts 115°
2026-04-28 20:11 62.28538 -8.67339 10776 ft 319 kts 115°
2026-04-28 20:12 62.27773 -8.62863 10429 ft 317 kts 115°
2026-04-28 20:12 62.27019 -8.58455 10241 ft 310 kts 115°
2026-04-28 20:12 62.26279 -8.54142 9949 ft 309 kts 115°
2026-04-28 20:12 62.25787 -8.51273 9717 ft 308 kts 115°
2026-04-28 20:13 62.24799 -8.45547 9276 ft 305 kts 115°
2026-04-28 20:13 62.24065 -8.41292 8946 ft 303 kts 115°
2026-04-28 20:13 62.23332 -8.37059 8622 ft 300 kts 115°
2026-04-28 20:13 62.22615 -8.32932 8314 ft 298 kts 116°
2026-04-28 20:14 62.21898 -8.28805 8003 ft 295 kts 116°
2026-04-28 20:14 62.21182 -8.24696 7686 ft 293 kts 116°
2026-04-28 20:14 62.20476 -8.20657 7380 ft 290 kts 116°
2026-04-28 20:14 62.19774 -8.16644 7075 ft 288 kts 116°
2026-04-28 20:15 62.19076 -8.12666 6776 ft 285 kts 116°
2026-04-28 20:15 62.18382 -8.08715 6477 ft 283 kts 116°
2026-04-28 20:15 62.17694 -8.04812 6180 ft 281 kts 116°
2026-04-28 20:15 62.17003 -8.00906 5882 ft 279 kts 116°
2026-04-28 20:16 62.16316 -7.97027 5584 ft 277 kts 116°
2026-04-28 20:16 62.15641 -7.93217 5284 ft 275 kts 116°
2026-04-28 20:16 62.14962 -7.89403 4982 ft 274 kts 116°
2026-04-28 20:16 62.14292 -7.85642 4686 ft 272 kts 116°
2026-04-28 20:17 62.13625 -7.81891 4399 ft 270 kts 115°
2026-04-28 20:17 62.13054 -7.78109 4249 ft 264 kts 110°
2026-04-28 20:17 62.12599 -7.74422 4226 ft 250 kts 110°
2026-04-28 20:17 62.12175 -7.70896 4189 ft 238 kts 110°
2026-04-28 20:18 62.11774 -7.67572 4149 ft 227 kts 110°
2026-04-28 20:18 62.11509 -7.65408 4118 ft 226 kts 110°
2026-04-28 20:18 62.11003 -7.61265 3974 ft 212 kts 110°
2026-04-28 20:18 62.10616 -7.58162 3484 ft 220 kts 111°
2026-04-28 20:19 62.10313 -7.55016 3155 ft 217 kts 101°
2026-04-28 20:19 62.10312 -7.51875 3075 ft 205 kts 90°
2026-04-28 20:19 62.10436 -7.48967 2859 ft 191 kts 92°
2026-04-28 20:19 62.10247 -7.46304 2564 ft 174 kts 115°
2026-04-28 20:20 62.09831 -7.44003 2303 ft 161 kts 122°
2026-04-28 20:20 62.09390 -7.41886 2076 ft 153 kts 124°
2026-04-28 20:20 62.08954 -7.39837 1828 ft 151 kts 124°
2026-04-28 20:20 62.08525 -7.37792 1614 ft 151 kts 123°
2026-04-28 20:21 62.08108 -7.35778 1387 ft 147 kts 121°
2026-04-28 20:21 62.07709 -7.33796 1129 ft 146 kts 120°
2026-04-28 20:21 62.07341 -7.31810 786 ft 146 kts 117°
2026-04-28 20:21 62.06900 -7.29899 403 ft 143 kts 123°
2026-04-28 20:22 62.06462 -7.28129 291 ft 122 kts 118°
2026-04-28 20:22 62.06144 -7.26853 270 ft 65 kts 116°
2026-04-28 20:22 62.06027 -7.26375 254 ft 18 kts 118°
2026-04-28 20:22 62.05963 -7.26117 248 ft 18 kts 117°
2026-04-28 20:23 62.05949 -7.25989 246 ft 6 kts 103°
2026-04-28 20:23 62.05942 -7.26036 246 ft 14 kts 291°
2026-04-28 20:23 62.06050 -7.26469 257 ft 36 kts 297°
2026-04-28 20:23 62.06156 -7.26902 271 ft 29 kts 299°
2026-04-28 20:24 62.06246 -7.27261 282 ft 25 kts 296°
2026-04-28 20:24 62.06321 -7.27563 290 ft 21 kts 297°
2026-04-28 20:24 62.06386 -7.27829 292 ft 19 kts 297°
2026-04-28 20:24 62.06449 -7.28083 291 ft 13 kts 298°
2026-04-28 20:25 62.06491 -7.28149 289 ft 7 kts
2026-04-28 20:25 62.06556 -7.28098 287 ft 11 kts 14°
2026-04-28 20:25 62.06618 -7.28090 287 ft 9 kts 359°
2026-04-28 20:25 62.06681 -7.28128 287 ft 7 kts 325°
2026-04-28 20:26 62.06707 -7.28179 287 ft 3 kts 326°
2026-04-28 20:26 62.06719 -7.28173 287 ft 2 kts 44°
2026-04-28 20:26 62.06719 -7.28170 287 ft 0 kts 59°
2026-04-28 20:26 62.06723 -7.28152 287 ft 0 kts 61°
2026-04-28 20:27 62.06724 -7.28148 287 ft 1 kts 60°
2026-04-28 20:27 62.06728 -7.28131 287 ft 1 kts 66°
2026-04-28 20:27 62.06729 -7.28129 287 ft 0 kts 67°